O3B FM9 (40351 NORAD) Tracking and Keplerian Element Data

This shows tracking and keplerian element data for the satellite.

Feedback or suggestion? Click here.




ElementValue
Catalog40351
NameO3B FM9
Epoch Orbit8510
Epoch Day227.19295058
Epoch Year2019
RAAN0.9438
Inclination0.0498
Eccentricity0.0002546
Argument of Perigee142.338
Mean Anonmoly216.733
Mean Motion5.00115271
Decay Rate-3.2E-07
L11 40351U 14083D 19227.19295058 -.00000032 00000-0 00000-0 0 9995
L22 40351 0.0498 0.9438 0002546 142.3380 216.7330 5.00115271 85106

Live tracking and technical data element details for O3B FM9 (NORAD 40351). O3B FM9 can be tracked NOW for your location showing map with azimuth and elevation plus other details from your city location.

Track the satellite on the map from your city or location and see movement details for azimuth, elevation, latitude, longitude, range, height, and movement on the map or in text.







IsCatalogInMostPopularTable: catalog: 40351, numindb: 288
Update: records affected: 1



GetName: 40351 O3B FM9

Hit Count: updated at: Wed, 21 Aug 2019 11:48:55 GMT